Flag for Burkina Faso Weather past 2 weeks in Koudougou, Burkina Faso

Now
82 °F

Partly sunny.


Feels Like: 88 °F
Forecast: N/A
Wind: 3 mph from Southwest

Location: Ouagadougou Airport

Current Time: Sep 17, 2014 at 6:41:24 PM

Latest Report: Sep 17, 2014 at 6:00 PM


Visibility: N/A

Pressure: 29.89 "Hg

Humidity: 74%

Dew point: 73 °F

Location of KoudougouLocation

Historic Weather in Koudougou — Graph

°F

Koudougou temperature yesterday

Maximum temperature yesterday: 82 °F (at 8:00 AM)
Minimum temperature yesterday: 72 °F (at 11:00 PM)
Average temperature yesterday: 76 °F

Past Weeks' High & Low Weather Summary

 TemperatureHumidityPressure
High93 °F (Sep 13, 1:00 PM)100% (Sep 3, 4:00 AM)30.04 "Hg (Sep 3, 4:00 AM)
Low70 °F (Sep 14, 5:00 AM)49% (Sep 13, 1:00 PM)29.83 "Hg (Sep 6, 4:00 PM)
Average79 °F81%29.94 "Hg
* Reported Sep 2 5:00 PM — Sep 17 5:00 PM, Koudougou, Weather by CustomWeather, © 2014

Note: Actual official high and low records may vary slightly from our data, if they occured in-between our weather recording intervals... More about our weather records

Advertising

Koudougou weather history for previous 24 hours

 ConditionsComfort  
Time TempWeatherWind HumidityBarometerVisibility
5:00 PM
Sep 17
84 °FPartly sunny.6 mph70%29.86 "HgN/A
4:00 PM86 °FPartly sunny.6 mph66%29.89 "HgN/A
3:00 PM86 °FBroken clouds.7 mph66%29.89 "HgN/A
2:00 PM84 °FBroken clouds.6 mph70%29.89 "HgN/A
1:00 PM82 °FPartly sunny.7 mph79%29.92 "HgN/A
12:00 PM81 °FPartly sunny.7 mph74%29.98 "HgN/A
11:00 AM79 °FPartly sunny.6 mph84%29.98 "HgN/A
10:00 AM77 °FPartly sunny.8 mph83%29.98 "HgN/A
9:00 AM75 °FBroken clouds.6 mph89%29.98 "HgN/A
8:00 AM73 °FBroken clouds.3 mph89%29.98 "HgN/A
7:00 AM72 °FBroken clouds.5 mph94%29.98 "HgN/A
6:00 AM70 °FBroken clouds.2 mph100%29.95 "HgN/A
5:00 AM72 °FPassing clouds.7 mph94%29.92 "HgN/A
3:00 AM72 °FPassing clouds.2 mph94%29.92 "HgN/A
2:00 AM72 °FPassing clouds.5 mph100%29.92 "HgN/A
1:00 AM72 °FPassing clouds.3 mph100%29.95 "HgN/A
11:00 PM
Sep 16
72 °FPassing clouds.3 mph100%29.98 "HgN/A
10:00 PM73 °FPassing clouds.2 mph94%29.95 "HgN/A
9:00 PM73 °FPassing clouds.1 mph94%29.95 "HgN/A
8:00 PM75 °FPassing clouds.2 mph89%29.95 "HgN/A
7:00 PM75 °FPassing clouds.No wind94%29.92 "HgN/A
6:00 PM77 °FPartly sunny.2 mph83%29.89 "HgN/A
Weather by CustomWeather, © 2014

See weather overviewHow to use our weather pages